GFSSGP_700_rhum_021.txt.gz
RH
72 82 80 80 89 86 83 82 81 73 76 77 83 84 82 82 74 77 78 84 90 91 92 91 90 64 57 53 55 50 43 48 47 50 51 54 56 54 53 50 53 57 56 55 55 61 68 74 76
79 74 74 77 79 83 77 82 82 77 81 80 84 83 80 84 77 75 74 81 84 88 85 85 82 57 53 52 52 46 45 49 54 62 63 63 60 60 57 57 60 59 55 60 61 68 71 74 79
70 72 76 80 76 81 78 82 80 80 83 87 84 82 80 79 75 75 73 76 83 86 84 85 70 56 53 50 51 45 46 51 58 65 70 64 65 64 64 60 59 61 62 62 67 68 69 78 85
55 59 72 72 73 72 73 79 78 86 86 84 84 82 77 79 71 75 72 74 80 83 79 72 62 56 52 49 49 45 45 52 58 64 66 68 70 71 66 63 57 60 61 63 64 64 66 67 64
48 51 64 65 65 63 67 72 83 82 81 81 81 70 74 69 70 73 67 73 82 78 75 65 61 56 50 48 49 46 47 51 56 60 64 68 71 72 69 64 64 64 65 65 65 68 72 76 75
59 56 62 68 67 70 67 73 78 77 75 71 69 66 65 67 69 68 64 65 74 69 65 64 62 54 50 48 47 48 48 51 54 60 65 66 68 69 69 66 61 56 58 62 66 64 65 59 62
61 58 56 58 60 65 68 68 67 73 77 65 59 59 59 65 68 66 63 61 60 62 58 61 59 53 49 48 47 48 49 51 52 56 63 68 71 64 61 62 58 54 50 45 43 50 47 55 55
52 55 50 56 58 67 64 63 63 65 69 65 66 56 52 55 60 60 60 54 54 56 55 55 51 48 46 47 48 47 49 50 50 55 65 66 64 60 58 55 54 49 47 52 58 66 59 55 44
52 52 48 51 59 60 63 59 44 50 62 65 66 62 58 49 51 54 52 51 51 57 55 46 43 44 44 46 47 46 47 48 48 56 65 67 66 68 64 54 59 64 57 63 67 63 56 40 37
43 51 48 48 42 40 48 62 56 36 48 48 53 56 61 52 48 48 47 47 48 53 51 44 40 40 41 43 43 44 45 46 49 56 62 66 69 71 67 63 67 68 58 54 60 52 48 47 24
32 43 49 43 43 35 43 52 61 45 41 44 51 42 46 57 49 50 52 52 49 47 43 38 36 36 38 39 40 40 42 44 50 56 60 63 72 72 71 77 74 60 53 51 48 48 48 43 26
27 40 43 42 41 32 30 40 55 56 41 50 56 60 50 46 52 47 55 57 49 38 38 36 32 31 33 37 38 40 41 45 49 54 55 57 68 63 68 64 58 58 61 63 55 47 48 49 47
27 33 36 39 36 31 29 28 35 50 49 42 51 39 49 50 55 49 58 64 52 41 36 33 31 31 33 35 36 38 41 44 48 51 52 52 58 57 66 69 70 64 82 84 57 67 52 45 42
27 28 33 37 33 31 28 26 30 45 55 49 43 36 35 40 46 41 39 44 42 44 34 35 32 31 32 34 36 38 40 43 45 48 50 52 53 55 60 68 58 65 66 64 62 58 40 31 19
23 24 29 31 32 31 30 27 34 40 54 53 50 47 28 38 43 34 30 32 33 36 34 33 34 30 31 33 35 38 40 42 45 48 49 50 51 53 53 50 51 61 65 59 46 33 32 19 14
23 22 23 34 29 29 28 28 31 39 49 50 52 53 26 25 30 36 31 31 31 30 27 33 32 30 31 33 36 38 41 43 45 46 46 47 54 49 46 45 54 58 55 44 36 31 34 16 17
24 24 22 27 28 25 25 29 23 26 30 47 45 51 44 23 27 29 28 27 30 28 28 29 30 29 31 33 36 38 40 40 45 43 40 38 41 44 45 69 63 47 41 31 31 28 17 17 18
23 24 25 25 25 24 25 26 22 24 27 33 45 48 49 31 17 29 27 26 28 26 27 30 28 29 29 31 32 32 32 33 34 36 38 43 48 50 82 86 51 44 21 20 20 22 24 19 19
20 22 23 23 22 23 25 20 23 29 26 32 38 45 47 40 21 25 25 24 24 24 23 25 24 27 26 24 23 25 26 30 33 39 43 56 52 51 76 52 55 32 20 24 38 44 45 35 21
17 20 23 22 21 23 23 24 19 23 25 30 33 40 41 44 20 18 19 17 19 20 21 20 21 24 21 19 20 23 28 32 39 43 44 42 40 41 66 65 48 25 25 40 50 49 48 46 26
16 18 20 23 22 22 23 24 24 19 18 19 19 31 44 44 28 16 16 16 15 17 16 16 16 18 19 19 19 20 24 26 28 27 32 38 43 40 43 39 31 20 36 50 48 50 50 50 27
17 13 20 22 23 22 22 22 23 21 19 18 20 23 30 43 43 24 16 13 14 15 15 16 17 17 18 15 13 16 20 21 24 28 34 34 36 41 36 37 24 26 44 51 45 52 51 45 48
18 18 12 21 22 23 22 25 24 24 21 19 19 22 26 34 42 41 39 30 14 14 15 15 16 17 11 12 11 13 16 20 25 27 30 31 35 45 31 26 20 32 49 51 44 47 48 48 48
24 25 22 24 24 24 22 23 22 25 22 20 19 21 23 28 36 42 41 40 33 21 14 14 16 15 12 13 15 16 17 19 21 24 25 28 28 36 23 18 21 35 48 52 46 42 41 42 43
26 22 22 21 22 21 20 23 22 23 22 21 18 22 22 26 30 36 40 39 42 40 24 12 14 14 14 13 15 16 17 16 18 20 21 22 24 27 21 16 26 39 46 48 48 44 41 40 41
26 20 15 21 16 15 20 21 21 20 21 20 18 20 24 25 28 30 34 34 37 37 42 37 14 10 12 12 14 15 16 16 16 17 17 19 21 27 24 17 29 41 47 46 46 46 42 40 40
26 24 17 17 17 18 15 18 18 19 20 19 19 20 23 24 21 23 26 28 32 36 36 40 44 41 20 11 12 14 16 18 16 18 16 17 20 23 21 15 28 40 44 44 42 42 42 39 39
21 20 22 18 18 18 15 20 15 15 17 19 18 18 21 19 22 20 25 28 30 31 33 36 37 42 45 45 37 20 16 17 18 21 22 19 18 19 24 14 23 35 42 43 40 39 37 40 42
24 23 20 19 16 12 12 11 13 12 13 15 16 17 18 19 17 16 17 22 27 30 31 33 33 34 38 42 46 47 44 43 46 45 40 27 22 17 23 14 18 33 40 42 42 41 40 43 46
23 22 22 18 24 17 13 11 9 10 11 12 14 16 17 18 17 16 16 18 21 26 29 31 32 32 33 35 41 43 46 50 51 54 60 54 21 17 20 15 17 30 38 42 40 40 39 40 40

GFSSGP_700_rhum_024.txt.gz
RH
79 83 89 88 86 88 87 84 86 80 87 94 80 97 93 77 78 92 88 88 91 93 90 84 68 58 54 51 38 36 38 47 49 49 48 45 45 47 50 53 56 56 57 60 65 70 70 74 65
80 86 84 80 90 84 78 84 77 82 83 91 82 84 79 82 77 76 81 91 100 96 87 71 66 54 52 45 38 40 45 49 53 56 56 53 51 51 53 58 57 57 66 68 68 67 67 74 83
78 81 85 91 79 66 71 84 85 88 76 96 89 90 90 83 77 78 85 88 96 96 86 67 59 52 50 41 39 47 53 60 65 68 62 62 59 58 56 60 64 64 66 69 66 70 78 82 89
64 70 72 81 61 68 72 82 90 96 87 77 81 84 81 78 75 76 81 83 90 89 84 64 54 51 48 41 41 49 55 63 66 69 68 70 70 65 61 61 66 66 62 64 66 70 68 69 60
62 60 80 66 57 70 76 88 94 88 92 79 84 78 75 77 74 77 78 83 84 84 79 59 52 50 47 42 41 50 54 60 62 64 66 73 73 70 66 64 70 68 67 67 70 70 70 68 59
68 55 69 43 49 69 74 83 85 88 94 72 73 69 69 68 73 75 75 81 82 80 70 58 51 48 46 43 43 50 52 57 62 64 68 71 72 70 64 61 60 64 62 57 56 53 46 49 52
61 75 54 48 50 58 70 81 76 84 93 88 65 63 61 68 69 72 74 79 84 75 65 57 48 48 46 45 45 49 51 54 59 64 69 68 64 60 60 57 56 53 48 48 58 53 52 50 44
58 67 55 49 48 58 69 79 82 85 92 62 60 57 54 59 63 62 67 74 75 71 64 54 47 46 45 45 46 47 50 52 54 60 62 64 59 54 54 55 55 50 59 68 63 68 54 43 40
47 73 49 47 49 54 60 79 80 60 63 59 58 59 57 53 58 56 54 61 58 58 58 53 47 44 42 44 45 47 48 50 52 58 64 66 67 70 58 55 65 63 66 65 75 68 58 55 40
34 63 47 50 47 47 60 73 65 68 61 59 57 57 58 50 49 50 46 46 48 47 46 47 47 42 43 45 44 46 47 48 52 58 61 63 72 74 62 63 62 60 58 53 55 56 58 84 100
33 61 52 50 49 48 51 72 71 69 72 59 47 51 54 53 47 48 47 48 48 48 40 35 41 38 42 43 45 45 45 47 51 56 60 65 73 72 72 75 68 52 52 79 63 98 68 97 91
42 44 62 53 48 47 43 59 71 62 56 67 51 59 55 55 50 49 48 50 51 46 41 34 35 34 38 41 44 44 44 46 50 53 53 56 65 69 65 57 54 57 79 71 71 76 67 72 90
30 56 52 50 41 43 37 51 59 71 50 49 38 45 54 58 56 53 54 56 56 47 42 34 31 30 33 37 41 42 42 46 48 50 50 51 55 60 64 62 67 64 64 59 56 54 46 29 28
47 50 51 36 35 36 32 43 57 63 51 48 44 33 48 52 58 55 56 59 57 51 41 36 31 30 32 34 37 39 41 43 46 48 48 48 52 53 57 66 58 60 57 65 60 49 35 27 57
48 41 30 29 32 31 30 32 48 57 48 47 50 35 38 36 55 55 52 56 57 49 42 34 32 31 32 34 37 39 40 41 45 48 49 49 49 50 52 50 53 56 69 57 50 46 55 18 18
29 28 28 29 30 29 32 28 40 43 43 46 46 47 22 34 31 47 49 50 49 52 44 38 34 31 32 33 34 36 38 40 44 46 46 46 47 55 48 55 64 54 57 44 41 38 38 20 28
24 24 28 27 29 29 33 28 31 45 33 48 47 48 46 22 34 34 38 38 41 40 43 36 36 32 31 32 34 35 37 39 41 43 44 40 41 46 37 60 72 51 34 36 34 42 24 19 18
23 23 23 24 26 28 29 31 30 45 54 60 38 48 48 46 21 28 30 31 34 36 34 33 33 32 32 32 32 34 34 34 36 38 38 37 42 44 44 80 67 59 27 37 54 57 34 24 20
21 21 23 23 26 27 27 27 29 40 55 57 61 37 46 45 42 27 28 28 27 31 30 27 26 28 30 28 26 28 28 28 28 28 33 39 46 46 54 70 66 46 30 45 55 59 45 38 21
22 20 20 22 24 24 25 24 27 33 51 58 66 33 38 48 48 25 28 25 24 24 25 26 24 25 27 26 25 24 26 28 29 32 32 35 43 40 47 62 67 41 35 58 58 64 50 44 22
21 21 20 21 23 24 24 24 24 24 32 47 56 63 31 41 45 30 19 19 20 20 21 22 23 22 22 22 22 21 24 25 28 31 35 35 36 34 34 47 47 36 30 57 51 59 55 40 28
18 18 19 19 21 23 23 22 22 24 28 35 44 47 36 37 40 42 17 18 13 13 19 21 21 20 19 18 18 18 19 21 25 28 30 32 35 36 32 33 34 32 41 48 51 50 48 40 47
16 13 15 17 18 20 22 22 20 22 25 27 35 40 44 29 36 41 33 23 14 14 15 19 18 18 18 17 17 15 17 20 25 26 28 29 29 32 38 30 27 26 50 44 47 49 48 46 49
20 16 14 16 16 17 20 21 20 21 25 26 35 38 21 27 28 34 40 21 18 14 15 16 16 17 17 16 16 12 14 16 20 22 24 25 26 28 36 29 28 24 46 44 45 46 48 47 42
22 19 16 14 14 15 16 19 21 20 21 24 26 30 23 22 24 28 36 39 31 20 14 13 14 14 15 15 10 10 11 15 18 21 25 24 24 25 28 26 19 35 43 45 43 41 41 41 41
21 18 12 16 11 10 15 17 18 20 22 23 25 23 36 24 25 26 30 35 37 36 34 19 14 14 15 14 12 12 15 16 18 18 18 19 20 23 27 22 16 29 41 45 44 43 40 38 39
22 20 12 10 12 12 9 12 16 19 19 21 22 23 26 25 24 26 27 29 34 33 34 39 38 16 12 13 14 11 14 16 14 16 18 18 18 21 24 19 13 25 40 44 44 44 42 38 36
18 17 15 12 15 16 9 11 13 14 19 20 21 21 24 31 22 23 22 25 25 28 32 37 40 42 34 15 10 10 12 13 14 17 19 18 17 19 19 20 11 23 38 44 43 43 42 37 36
19 18 16 13 11 11 11 8 10 13 18 19 20 22 22 28 23 22 20 19 24 29 29 28 34 39 42 42 42 32 19 13 14 16 18 19 20 18 17 20 13 16 35 41 41 42 42 37 38
18 18 17 14 15 13 11 8 11 12 14 19 18 21 21 24 24 19 17 16 18 24 29 29 25 30 34 37 41 43 46 41 33 26 22 22 22 21 18 16 19 12 25 36 40 40 40 41 39

GFSSGP_700_rhum_030.txt.gz
RH
81 86 82 90 99 84 90 82 89 81 72 76 68 82 96 83 90 73 62 67 66 74 79 81 66 52 45 34 25 38 41 44 46 44 42 44 46 51 56 54 52 55 60 64 67 71 75 67 75
78 86 89 91 89 89 90 84 80 74 72 78 88 90 72 62 68 63 65 63 70 74 76 72 59 52 34 27 34 46 46 43 41 44 47 49 53 56 55 57 60 59 60 64 70 79 85 84 76
81 92 97 93 92 88 78 71 76 77 80 88 90 91 68 63 78 70 68 72 75 76 76 67 50 39 26 30 38 39 36 37 39 46 50 53 59 61 59 57 60 61 62 70 64 63 58 48 48
83 94 90 92 76 78 75 74 69 74 80 87 86 78 70 81 74 78 86 70 64 63 66 50 43 29 29 33 33 39 48 49 54 60 59 61 56 58 58 58 58 58 60 59 58 51 47 41 50
72 94 98 74 76 74 64 71 68 80 73 86 82 96 97 88 90 86 86 68 57 48 51 48 31 31 34 41 50 56 59 61 67 67 66 63 62 66 64 59 59 58 53 45 37 40 39 41 36
90 81 81 77 65 55 56 65 68 69 76 83 77 73 88 76 83 85 84 70 57 48 49 42 30 34 44 50 57 58 62 63 68 69 68 62 59 55 52 48 38 32 40 43 43 38 29 27 36
86 65 77 77 63 48 56 63 66 70 63 86 79 61 83 83 81 89 87 76 67 51 48 41 30 36 46 51 55 59 60 62 60 57 57 60 60 54 48 37 43 52 49 52 51 43 36 22 17
99 99 96 67 56 44 49 58 64 68 74 82 72 53 74 80 81 87 98 88 60 51 46 40 27 36 44 48 52 57 58 62 64 60 52 52 52 52 58 54 52 53 48 47 41 48 30 12 16
88 95 85 66 62 45 46 55 60 69 70 80 82 66 55 70 86 99 95 97 70 68 47 41 27 34 41 46 50 53 54 58 59 63 61 81 67 61 61 57 53 41 40 53 64 72 68 92 61
79 81 57 60 56 54 46 46 54 60 64 77 75 55 58 61 77 79 91 78 99 96 50 41 30 30 40 44 47 49 50 53 59 57 58 77 52 62 54 55 48 50 87 72 69 67 48 99 59
63 66 52 45 42 41 46 42 49 50 60 78 61 50 54 50 68 72 71 96 79 90 61 41 35 32 38 41 44 47 48 49 54 56 90 98 74 100 80 56 61 73 76 96 100 57 36 86 72
51 62 58 55 42 32 44 51 41 47 66 72 57 53 49 44 67 72 72 94 98 72 100 64 38 31 38 41 42 44 46 65 54 61 61 76 78 98 52 91 65 98 53 93 49 61 35 59 53
44 47 51 53 35 32 32 57 47 50 55 70 74 58 96 78 66 77 68 71 72 71 100 82 32 34 54 61 41 44 95 68 95 56 61 87 68 76 62 66 92 54 68 66 80 68 47 45 96
41 39 46 52 45 34 30 31 36 46 49 65 72 62 94 97 98 94 90 70 93 90 99 81 31 33 31 33 38 79 77 84 98 87 52 55 92 66 62 62 99 56 71 69 50 52 72 46 57
36 38 38 40 36 30 28 26 33 53 52 58 72 69 92 93 92 89 99 96 93 85 97 81 31 31 30 32 34 37 44 44 56 87 42 44 43 41 92 44 48 69 70 60 40 37 97 57 52
36 33 36 37 36 30 27 24 32 42 53 65 74 77 84 91 87 92 96 89 96 84 82 58 31 25 28 31 34 37 37 40 49 38 36 39 38 41 40 54 53 69 48 36 32 40 100 68 100
35 31 32 33 32 29 25 24 26 47 54 64 69 78 84 87 89 90 91 90 91 82 76 49 32 24 28 30 33 35 35 33 35 36 32 36 33 32 36 41 57 51 99 53 38 51 55 84 73
32 29 27 30 30 27 24 24 31 39 56 58 64 69 78 81 80 85 88 91 89 77 51 38 31 25 27 30 32 33 32 32 32 33 32 31 23 25 23 33 74 53 58 36 47 56 44 25 42
30 25 21 21 23 25 23 25 31 40 59 65 59 66 70 77 78 82 81 91 97 75 41 38 28 24 26 28 29 30 29 30 32 31 32 30 21 25 30 55 86 62 38 40 53 59 56 32 30
30 25 20 17 18 19 23 22 28 35 39 50 54 72 68 72 78 79 63 84 83 53 28 30 28 25 24 26 28 28 29 27 29 30 24 17 21 28 41 52 57 48 41 46 56 54 57 24 36
28 26 21 18 16 18 22 21 24 30 33 34 48 40 59 66 72 74 52 43 46 36 20 23 24 22 24 25 25 26 28 28 24 20 16 17 20 26 30 43 55 53 45 39 66 50 47 31 34
22 25 20 19 17 16 17 18 24 26 26 30 37 43 55 63 69 74 64 45 21 24 20 19 23 21 23 24 23 22 22 22 18 20 22 24 26 25 23 27 42 44 35 37 55 44 44 44 41
15 14 17 17 16 16 16 16 16 23 23 24 33 38 51 56 61 72 68 44 31 22 18 17 20 22 21 24 22 21 20 18 20 20 22 21 23 20 19 20 24 33 31 34 48 45 46 39 43
12 11 11 12 13 16 15 16 17 19 22 21 26 31 41 47 58 64 70 64 58 39 21 16 16 21 21 21 20 18 16 15 15 17 18 17 14 18 22 24 27 22 29 32 44 44 37 42 43
13 12 12 13 13 14 14 16 17 17 21 21 21 24 31 42 50 59 66 66 48 31 15 13 12 17 20 19 16 13 12 14 13 15 16 14 14 12 17 17 19 24 23 28 42 39 40 44 42
13 12 13 20 14 11 10 13 14 15 17 22 21 22 26 34 45 50 60 62 35 33 29 9 10 11 16 16 14 13 14 14 12 14 15 15 14 13 12 14 14 17 22 20 41 40 42 42 43
15 13 12 10 9 9 8 9 11 13 15 17 17 20 22 26 34 45 50 56 32 34 35 19 8 8 12 14 12 14 15 15 13 11 12 12 13 13 11 10 13 15 14 18 32 40 41 41 42
14 14 13 11 17 15 8 9 10 10 13 15 18 18 20 24 29 40 47 51 28 31 35 29 13 8 9 10 11 13 13 13 10 10 10 12 13 12 11 7 11 13 16 13 18 38 39 39 40
14 15 14 12 10 12 13 8 8 8 11 14 15 17 20 24 30 38 45 52 29 30 35 29 22 9 6 7 7 8 11 11 7 6 9 13 13 11 16 11 9 11 13 14 10 24 36 35 37
14 15 15 15 14 10 10 10 9 10 10 13 16 16 20 21 28 34 40 50 56 29 29 28 26 25 18 21 15 7 7 8 8 8 9 11 11 12 14 16 13 11 8 11 12 9 25 32 32

GFSSGP_700_rhum_033.txt.gz
RH
85 82 90 90 100 91 90 79 85 88 90 81 81 73 73 74 69 65 57 76 71 67 68 68 58 45 50 34 26 39 44 48 47 43 39 38 46 52 52 53 53 56 59 62 68 70 67 74 65
82 89 89 98 92 88 84 87 81 80 81 74 72 66 69 71 73 56 54 69 71 73 69 64 52 49 42 27 40 44 47 45 43 40 42 46 53 52 55 57 58 60 61 68 68 72 59 49 58
79 90 95 98 99 86 84 84 75 92 90 77 63 73 63 62 56 56 61 61 73 74 71 56 48 40 30 36 49 46 41 40 39 43 48 53 55 56 60 60 58 60 60 61 61 54 42 47 56
79 95 98 96 86 82 77 77 78 73 75 76 73 65 63 63 57 58 64 64 67 70 63 54 46 31 30 42 40 36 40 43 43 50 51 54 58 59 57 56 56 59 58 48 37 40 39 50 61
67 96 99 97 85 81 76 77 81 84 86 76 76 68 62 65 65 65 63 62 64 63 54 45 33 29 30 33 45 47 52 54 55 57 57 61 63 60 59 58 54 42 37 35 35 28 35 34 49
88 89 91 82 81 89 78 62 74 78 79 74 76 64 78 81 80 75 58 54 58 52 43 38 26 28 37 49 56 57 63 63 65 64 63 57 53 50 44 36 42 53 51 42 37 32 26 34 39
86 80 85 74 86 76 67 68 66 68 73 66 74 63 78 91 90 74 56 47 43 38 38 28 27 39 51 56 57 60 65 65 60 57 54 52 49 41 35 55 62 60 50 45 47 36 10 14 31
85 89 70 64 74 84 84 68 69 70 82 59 79 53 58 77 87 76 59 50 42 38 30 26 34 46 53 54 58 60 56 55 50 45 44 44 48 50 52 53 43 38 40 50 49 64 67 36 29
89 97 86 71 75 65 79 66 67 67 66 59 61 72 59 76 88 79 63 52 39 41 30 26 37 45 51 53 56 57 61 61 45 52 55 59 54 55 56 46 41 48 77 59 68 65 91 78 65
93 83 82 69 76 54 74 79 59 83 71 64 59 70 61 76 83 84 68 54 40 39 34 23 35 42 47 50 54 55 58 57 53 53 69 62 50 44 37 41 61 93 70 83 49 54 86 55 77
91 71 63 62 66 63 55 70 67 77 67 44 46 46 55 67 81 86 80 61 46 37 36 25 29 40 43 48 50 51 54 59 57 64 59 59 79 63 46 60 74 74 89 86 37 17 67 61 74
78 68 54 48 51 57 59 53 59 67 53 48 38 42 43 53 62 72 82 72 48 39 36 34 27 35 40 45 47 49 50 55 56 63 78 63 70 37 95 64 86 48 62 66 40 42 47 84 88
62 58 54 41 43 55 49 37 46 70 54 54 48 42 43 47 53 71 72 70 57 46 40 38 32 30 37 40 43 49 48 46 50 51 72 69 49 42 50 62 80 82 72 69 43 54 65 92 88
53 51 45 46 39 54 49 37 48 70 56 35 43 37 44 44 41 56 62 49 60 51 24 31 33 27 31 34 38 44 61 71 56 49 46 55 81 48 60 75 84 59 50 43 36 55 62 85 55
52 48 48 50 51 40 52 46 55 63 57 45 23 29 46 48 51 50 56 53 53 48 38 36 34 30 28 30 31 36 46 84 91 96 44 47 59 46 82 58 50 67 40 32 35 67 90 96 99
53 47 45 47 41 39 44 42 55 43 39 40 26 36 52 62 42 62 61 56 73 67 37 49 38 33 29 31 33 37 39 47 44 44 48 41 41 46 44 52 56 48 89 30 43 98 74 69 86
48 47 40 34 36 38 34 29 47 50 48 55 46 59 88 86 88 74 75 79 61 59 34 42 29 26 27 29 34 36 39 36 45 32 42 43 42 41 41 47 60 50 67 37 53 55 43 40 68
42 44 36 33 32 35 34 26 39 53 60 49 70 87 82 89 88 76 70 90 78 75 65 38 24 26 26 29 32 33 34 38 32 30 32 38 38 32 33 45 76 66 39 44 54 60 45 40 46
40 43 34 31 29 32 31 27 41 61 60 51 48 80 87 46 81 92 85 95 86 78 50 34 22 23 26 27 26 26 25 30 29 31 25 30 25 24 24 50 71 76 44 45 57 58 61 29 39
36 39 37 29 25 29 31 26 51 47 46 41 42 71 79 63 70 68 85 71 63 44 36 34 25 20 24 25 26 26 25 29 30 27 24 20 16 28 34 52 61 54 48 49 65 54 43 31 57
33 32 34 31 22 19 22 27 37 44 34 47 48 60 78 45 62 53 70 44 32 25 21 24 26 19 21 23 24 24 26 24 26 21 12 13 17 24 31 40 47 57 52 37 58 42 33 40 43
30 31 31 30 26 22 17 27 26 37 36 36 41 57 43 54 66 59 53 68 31 17 19 21 25 21 19 22 22 21 18 18 18 16 14 15 18 22 26 29 32 44 39 40 47 40 44 37 39
31 29 28 28 26 23 20 20 23 25 33 36 35 38 53 61 74 67 57 44 43 26 20 20 21 21 19 21 20 18 17 19 14 14 17 22 25 24 24 26 26 26 31 33 50 41 36 39 42
31 30 23 26 26 22 19 18 18 22 26 34 34 40 55 55 44 49 51 55 52 33 20 21 20 19 20 18 18 17 16 17 13 13 17 18 20 17 18 21 25 24 22 30 44 42 35 41 42
28 25 20 20 21 21 16 15 16 17 20 22 32 38 38 46 42 45 54 46 66 40 30 14 16 15 16 18 16 14 14 15 12 12 14 15 15 14 17 17 18 27 19 25 38 37 34 40 39
22 20 15 25 21 16 13 14 15 15 17 22 22 26 34 43 34 40 41 48 48 39 30 16 11 10 12 16 17 12 12 11 11 11 11 12 12 13 15 15 16 18 21 20 31 35 34 39 41
17 15 13 13 14 16 12 10 13 14 16 16 21 28 33 34 35 46 44 44 49 36 29 19 9 10 10 12 17 12 10 10 9 9 10 11 9 11 12 13 13 14 16 15 18 32 34 36 42
17 15 14 13 22 22 14 12 11 9 11 14 14 22 26 32 32 37 42 44 25 25 26 29 10 9 9 10 13 12 11 12 12 12 10 9 8 9 8 7 8 10 12 16 12 20 34 34 36
15 16 14 13 13 25 28 16 9 8 8 11 19 16 21 24 32 29 41 42 29 23 27 28 24 8 10 10 10 10 10 11 13 13 9 9 9 12 9 6 8 9 11 13 16 12 22 34 34
18 14 15 15 16 13 14 13 11 11 9 8 17 17 21 23 26 31 35 39 30 26 21 28 18 5 6 7 8 8 9 10 9 9 7 6 8 10 11 10 12 13 13 11 10 14 11 15 32

GFSSGP_700_rhum_036.txt.gz
RH
80 82 87 95 100 92 89 81 87 96 90 83 76 75 71 64 63 65 74 79 68 65 66 63 52 42 40 30 24 34 42 45 46 41 40 52 54 55 54 58 60 61 64 70 75 74 77 59 45
84 89 94 97 91 79 87 87 85 93 87 83 87 80 69 63 65 68 69 72 66 63 65 55 49 47 38 23 38 43 44 44 41 39 42 48 49 51 55 59 62 70 69 66 61 49 47 57 37
81 92 97 98 80 73 85 72 98 95 80 75 76 80 68 67 74 62 70 63 65 66 61 59 49 43 26 33 44 42 43 43 41 43 42 49 53 58 59 61 66 65 65 57 48 41 60 44 38
83 91 93 93 91 87 83 87 100 100 88 81 71 66 60 63 60 58 63 66 67 66 63 53 47 30 26 44 44 40 42 42 43 47 50 54 55 57 58 60 59 54 42 36 39 37 56 62 61
85 96 94 75 82 80 82 93 99 95 77 77 72 60 56 60 64 61 60 63 70 67 54 49 34 27 35 42 35 36 44 45 49 50 52 53 54 56 58 51 41 36 34 33 27 31 32 53 59
89 84 77 84 78 83 83 88 80 75 74 69 66 59 58 62 65 63 61 64 73 63 52 42 27 29 33 38 41 49 54 55 52 54 58 55 52 44 33 40 42 36 30 34 28 24 32 29 33
81 77 77 82 79 77 83 84 81 69 66 72 68 59 61 67 71 65 60 68 67 59 41 28 27 27 39 50 57 63 62 63 60 57 52 48 37 34 48 45 42 36 40 30 14 10 21 34 36
79 80 64 70 81 67 89 92 86 73 66 74 81 59 57 72 75 65 60 62 55 47 35 23 26 41 50 56 61 64 62 57 51 47 40 30 31 44 50 36 35 49 66 66 66 70 44 42 39
76 86 64 62 87 88 95 92 90 78 66 68 74 66 62 68 77 56 51 53 44 39 23 25 41 51 54 56 60 54 46 44 41 42 42 50 41 40 33 37 48 61 71 62 76 76 51 53 73
87 69 58 57 70 85 82 95 86 69 66 52 57 63 68 66 71 56 42 42 38 26 21 34 46 53 54 54 51 51 49 48 54 68 61 48 43 32 30 59 60 60 86 47 52 75 61 50 62
66 69 66 65 59 74 68 68 69 68 61 60 45 48 60 61 72 63 46 36 31 25 21 37 46 51 53 52 51 52 53 56 54 70 59 50 75 42 51 86 54 72 81 49 47 44 71 71 54
66 64 66 59 55 58 62 64 48 55 60 61 41 44 46 56 63 68 55 37 32 28 19 35 43 47 50 51 50 50 53 63 73 67 67 74 53 79 60 74 47 63 64 55 52 65 86 79 75
68 47 53 62 55 52 55 59 55 50 61 55 57 45 42 52 60 71 64 45 35 30 20 26 39 44 46 48 46 46 50 57 62 59 73 74 63 42 58 76 54 58 50 41 66 74 90 90 82
49 43 48 63 57 53 50 61 55 55 51 29 49 42 42 45 48 60 68 60 42 34 27 24 31 40 42 44 42 40 47 50 50 61 65 71 68 49 52 59 55 47 40 36 69 69 71 71 46
58 64 63 57 59 55 55 51 46 48 46 41 22 37 41 39 43 44 52 51 49 36 31 28 30 33 37 40 38 36 43 46 42 41 47 78 74 47 45 47 63 64 42 34 54 92 82 92 92
64 64 63 56 51 51 55 57 53 57 53 51 18 33 44 42 43 52 53 52 45 42 35 30 33 31 31 33 34 34 38 39 42 50 41 43 39 36 44 51 53 81 50 48 62 71 59 81 98
62 57 58 55 48 48 54 55 53 55 60 44 27 21 32 45 49 46 50 50 54 39 31 27 26 31 29 31 36 38 33 29 31 32 32 36 37 36 37 48 63 48 40 51 61 57 45 64 72
50 51 53 51 44 43 56 51 52 51 60 44 40 37 25 32 31 51 56 59 57 60 26 25 23 30 29 30 34 37 35 30 30 26 28 32 34 28 28 51 73 65 43 50 60 59 47 49 60
46 46 45 45 38 36 34 45 42 46 56 48 42 38 35 32 43 68 69 66 74 53 31 24 26 28 29 28 31 32 31 28 25 29 28 30 28 24 22 46 84 65 43 61 59 56 50 42 76
39 40 42 43 36 34 32 42 51 47 50 47 39 44 43 36 24 43 89 68 62 43 34 31 26 30 27 27 29 28 29 27 27 28 26 29 27 25 31 51 66 60 42 65 53 42 30 44 46
37 38 39 41 32 35 32 42 63 62 56 51 47 47 44 38 35 28 55 43 41 37 30 29 28 28 26 26 29 29 28 30 27 23 23 20 21 28 35 43 51 66 49 55 45 36 38 40 56
34 36 38 39 37 36 31 44 54 46 54 58 51 43 33 41 41 40 42 41 30 29 29 31 35 36 27 26 27 26 20 18 20 22 21 16 20 25 30 34 39 57 43 47 39 42 36 38 43
30 32 37 36 33 33 32 27 37 41 46 49 48 39 39 41 39 39 44 38 32 43 48 32 30 34 29 25 24 23 20 20 23 21 11 16 21 25 26 25 26 36 39 40 41 40 34 37 39
40 32 31 31 31 34 31 29 24 53 42 37 36 37 37 43 33 34 49 56 46 42 48 41 33 27 27 24 24 22 19 18 19 14 12 20 24 25 24 22 22 23 29 33 44 39 36 36 36
42 36 36 37 34 34 27 28 26 21 37 33 22 32 36 40 38 40 40 56 49 43 33 23 24 21 20 22 22 21 18 18 15 12 16 20 20 16 19 22 24 25 22 29 41 37 36 38 36
41 36 36 48 37 28 23 20 20 20 18 28 26 22 30 33 34 40 33 32 30 42 39 28 16 16 16 18 18 18 18 17 15 12 14 17 17 16 16 17 19 20 23 24 36 36 34 40 38
40 35 32 23 18 18 17 16 16 18 15 24 29 33 32 31 34 39 36 40 36 33 34 35 24 14 13 14 16 17 16 16 12 10 10 12 14 15 16 14 16 17 17 22 26 36 33 39 42
36 31 31 28 24 26 18 13 12 17 17 14 14 18 28 32 33 35 40 40 42 30 26 30 31 14 11 13 15 16 12 12 11 10 10 10 10 12 13 13 14 16 17 18 19 29 35 36 39
32 28 23 24 20 23 26 15 12 13 16 16 15 14 18 32 33 33 39 39 40 20 28 27 31 21 12 11 12 14 10 10 10 10 11 10 9 8 9 11 11 14 14 14 16 16 24 32 35
32 28 21 16 18 14 15 14 13 12 10 9 10 12 16 28 26 26 28 31 42 20 24 23 29 24 10 8 8 10 9 10 11 12 11 10 9 9 10 12 11 12 14 14 12 14 15 13 27

GFSSGP_700_rhum_042.txt.gz
RH
84 83 84 88 92 92 93 88 90 80 76 88 86 82 86 80 77 78 77 91 89 83 71 64 54 46 37 30 29 30 44 43 44 55 61 62 63 62 61 64 68 71 67 69 73 54 51 41 59
82 85 91 96 94 95 88 85 88 86 80 92 94 88 98 89 82 76 75 88 89 72 62 56 48 46 34 31 30 33 44 43 48 57 58 61 61 61 62 63 68 73 76 68 62 46 42 52 60
81 88 98 100 86 82 85 87 89 96 98 97 94 92 99 90 85 73 79 83 81 64 57 52 42 39 32 30 41 45 44 42 50 53 55 58 59 59 65 68 63 60 51 40 41 45 39 62 60
78 91 99 100 96 91 87 83 87 94 89 92 86 94 94 89 77 74 77 81 72 63 58 43 39 29 25 38 44 45 44 46 52 59 62 62 60 64 63 62 51 38 34 35 47 51 51 72 80
75 95 99 92 97 92 87 80 85 84 81 80 80 85 84 81 76 76 70 69 69 60 48 46 40 23 34 41 44 43 43 50 52 54 59 59 60 59 55 43 37 30 26 25 43 60 58 59 81
80 86 88 83 87 84 84 78 85 85 77 80 85 80 77 74 75 77 65 65 66 56 50 45 27 26 39 42 43 42 46 50 50 52 53 55 57 46 41 38 33 28 19 22 32 34 53 63 77
73 85 81 80 84 80 83 75 83 82 80 78 76 75 68 71 78 71 63 63 64 55 51 38 23 36 41 42 44 43 49 52 55 58 56 53 38 44 39 33 38 38 13 15 26 32 62 52 65
82 83 74 72 78 79 78 73 85 82 79 77 74 67 58 58 74 66 62 65 62 60 49 27 27 36 34 37 48 47 54 60 63 58 50 38 46 42 35 44 53 55 73 50 39 32 77 56 60
75 70 66 68 73 74 76 72 70 79 72 75 65 64 58 57 65 61 61 65 64 57 44 26 29 30 34 49 52 60 63 60 55 50 36 48 45 37 44 64 73 40 73 76 47 46 56 81 85
48 55 64 66 69 67 64 68 75 67 73 67 61 63 64 57 55 55 56 59 57 46 32 25 27 35 46 60 65 65 56 47 39 37 41 47 43 69 62 73 77 36 41 67 66 42 60 82 88
45 69 68 68 71 63 52 61 65 65 68 65 62 61 60 61 59 50 52 53 47 39 22 21 33 49 58 66 66 50 42 39 47 54 49 39 50 79 66 76 78 56 50 47 67 64 44 62 83
40 68 76 75 73 67 70 69 71 68 78 77 77 80 65 63 64 42 43 46 37 29 20 26 41 53 57 64 53 44 45 58 65 51 47 45 62 80 68 78 66 55 50 66 64 71 62 74 48
23 58 74 77 78 74 69 62 67 66 72 72 58 59 73 66 68 48 46 47 36 22 20 33 43 51 55 52 55 52 53 58 66 52 60 63 81 80 86 77 70 60 54 66 60 76 67 66 60
22 32 68 78 72 75 70 65 64 62 59 64 64 51 59 65 65 50 40 38 32 19 23 36 43 50 52 53 53 54 57 68 56 53 72 52 65 82 76 71 60 47 55 75 69 70 69 68 61
26 42 59 72 67 67 71 62 53 60 55 65 61 49 54 58 68 57 44 31 27 17 26 37 43 47 51 54 51 49 60 66 63 56 60 66 64 70 65 65 78 44 49 85 73 68 70 79 89
12 30 68 63 65 60 66 62 59 58 52 62 57 40 43 57 65 62 52 39 28 21 22 37 41 43 47 51 48 46 47 56 57 68 54 70 56 64 60 68 69 60 60 84 88 75 74 86 100
35 34 46 58 62 63 65 58 56 54 47 53 56 32 39 50 57 62 60 52 37 26 16 32 37 40 41 48 48 45 44 49 52 55 54 43 45 49 58 71 64 55 62 71 73 57 74 87 93
47 31 39 50 58 60 60 58 58 54 51 50 56 28 33 42 40 49 65 60 53 36 24 20 32 38 39 43 45 43 42 45 50 43 37 35 37 39 48 78 86 69 66 74 76 53 62 62 64
44 47 36 45 53 57 55 58 57 55 50 53 56 43 22 29 42 42 53 63 60 49 37 22 22 31 34 36 37 35 38 45 52 54 33 33 30 29 39 66 78 82 65 64 66 52 48 50 48
25 48 50 48 56 56 54 52 53 50 43 45 50 48 28 27 36 43 42 54 49 44 36 32 23 24 25 28 30 33 38 44 46 41 35 32 27 23 36 59 68 65 63 56 46 45 48 60 55
15 41 42 46 51 56 52 48 46 43 42 49 54 58 48 31 27 34 36 37 46 38 35 33 33 23 24 26 29 33 37 37 34 33 34 31 29 25 38 57 62 60 58 52 40 39 51 59 65
14 12 40 48 46 43 49 47 46 44 38 38 46 56 52 45 31 30 24 28 25 26 32 24 20 22 23 26 28 31 32 31 28 29 31 31 29 26 35 48 56 59 49 46 41 40 48 59 65
15 12 16 44 46 40 42 39 42 41 40 37 39 44 54 49 49 39 22 19 21 28 22 17 19 21 25 26 27 30 31 30 28 29 30 31 29 23 26 34 46 56 48 47 44 40 42 46 49
27 30 22 30 42 42 40 40 40 37 35 35 37 45 49 52 48 51 35 29 23 29 31 24 20 20 26 24 25 27 28 28 27 27 29 29 25 19 23 28 32 43 42 47 42 39 39 42 47
41 34 45 51 49 45 41 41 40 39 34 35 36 36 39 44 51 49 48 40 32 27 28 34 29 24 23 24 24 25 25 27 26 27 28 26 19 18 23 24 26 29 36 43 40 37 36 38 44
43 41 41 62 57 39 39 41 38 40 35 34 28 29 39 39 44 50 50 45 41 33 22 28 28 26 23 20 22 22 23 24 24 26 25 22 17 21 28 28 24 26 26 36 39 36 35 36 42
40 47 40 37 36 39 29 36 37 35 34 33 25 26 27 32 38 38 48 49 45 41 38 16 21 23 24 20 18 19 19 21 22 23 24 21 17 24 26 23 23 26 24 28 39 34 35 34 41
38 45 47 44 55 48 37 32 33 33 32 30 30 24 23 24 29 34 40 44 44 41 40 36 22 20 17 22 21 18 17 19 20 24 22 20 19 23 24 20 19 19 21 21 30 36 33 34 34
38 43 47 38 44 47 39 29 26 30 30 29 27 23 24 20 21 29 36 41 41 44 47 38 33 25 22 22 24 21 19 18 19 19 20 21 22 22 22 19 17 17 18 18 20 31 34 33 35
38 38 49 46 44 45 35 33 20 25 25 23 26 22 21 19 26 26 30 35 40 36 38 38 42 39 36 23 24 23 22 21 18 18 18 20 20 18 19 17 17 16 16 16 16 19 29 32 32

GFSSGP_700_rhum_045.txt.gz
RH
80 81 82 82 88 97 96 84 91 87 90 86 75 79 76 77 80 82 85 90 90 83 66 56 55 36 32 31 35 44 46 46 51 57 60 61 60 57 59 61 63 60 65 73 59 47 42 52 54
81 87 89 91 88 97 95 85 91 89 90 86 79 88 82 81 79 81 74 87 89 75 60 54 52 35 31 27 35 44 42 54 61 60 58 58 56 56 58 63 71 72 64 56 42 44 48 58 61
81 86 92 98 96 85 87 85 88 90 88 93 88 82 95 90 84 82 78 82 86 73 56 50 46 38 29 25 34 43 44 54 54 56 58 56 59 62 67 64 61 50 39 39 42 41 58 57 67
75 90 98 100 98 84 88 90 85 92 89 79 87 88 91 91 78 80 74 83 76 63 50 48 40 33 22 28 39 42 41 50 55 59 57 59 61 61 62 56 41 35 34 45 44 51 70 79 67
75 94 98 92 90 96 82 81 88 90 85 80 84 82 84 81 72 80 77 81 64 55 46 48 35 25 29 39 41 44 46 52 56 60 60 57 59 59 50 37 32 27 26 47 59 56 72 87 58
85 97 91 83 85 82 84 81 80 84 80 76 79 80 87 80 71 80 79 72 61 53 44 47 29 30 37 41 42 47 51 52 57 58 54 52 52 43 36 28 27 20 23 34 44 60 64 83 68
65 93 84 80 75 82 88 80 84 83 78 80 80 81 84 80 74 78 76 67 60 50 48 39 20 33 39 44 43 50 54 57 57 55 54 45 37 36 28 31 40 16 18 32 32 47 58 75 73
65 77 75 74 81 82 76 73 82 78 76 82 79 70 64 69 76 72 69 66 58 51 47 25 25 36 42 42 47 53 56 58 62 57 39 35 41 32 40 47 59 56 45 36 36 71 51 60 74
56 77 67 70 75 72 72 69 65 74 76 74 69 57 65 59 73 65 66 63 56 54 44 24 35 35 40 44 52 57 65 64 57 46 35 36 34 43 65 68 37 59 58 48 42 78 74 68 56
34 46 63 69 71 66 70 72 73 72 74 67 61 57 62 59 62 61 61 59 58 55 35 26 34 30 39 52 61 65 62 57 46 33 42 36 62 64 67 78 40 46 63 62 51 65 89 90 91
27 52 70 72 70 74 71 64 66 71 72 69 60 61 62 60 53 56 59 59 55 52 28 25 28 36 54 64 67 58 48 39 40 43 44 38 70 67 76 72 68 50 56 64 55 51 89 90 89
26 70 71 70 66 59 71 69 75 74 76 75 73 76 69 62 56 47 57 58 46 36 24 21 32 50 62 68 59 45 43 53 52 46 34 42 71 73 76 65 68 49 64 72 73 72 56 49 62
20 71 73 74 77 77 71 68 72 70 78 77 70 73 77 66 63 54 59 56 47 28 21 24 41 56 62 60 45 44 51 68 51 55 56 79 79 85 78 62 56 48 64 70 74 83 75 53 47
21 42 74 76 78 71 64 66 66 64 68 74 71 67 69 71 68 56 49 46 40 24 20 29 45 54 57 48 50 50 54 63 50 58 65 62 74 89 81 80 55 52 71 72 71 62 69 70 50
13 28 34 70 76 68 69 59 56 59 62 67 71 61 63 73 72 62 42 41 36 20 21 31 45 51 49 50 50 52 62 61 52 61 58 55 70 83 71 75 81 47 73 84 79 60 61 79 46
9 28 59 58 71 67 67 60 57 59 61 62 66 45 55 64 72 68 48 42 38 21 22 35 43 48 46 49 50 49 61 64 59 66 60 57 69 68 64 70 66 56 69 76 79 72 74 100 64
19 25 24 54 65 68 62 59 54 54 58 56 59 42 47 58 73 68 52 41 35 24 21 35 41 45 47 49 50 48 49 54 59 70 64 60 50 60 62 66 63 62 65 71 71 82 75 97 72
32 27 22 36 63 64 58 53 52 52 54 53 53 57 41 47 53 64 57 46 36 32 18 33 42 43 46 49 48 46 45 47 52 57 60 47 42 46 65 78 81 68 73 78 79 53 54 74 68
38 44 34 33 53 60 55 52 49 54 55 53 50 53 41 38 54 66 64 54 44 35 25 23 35 41 42 42 44 42 42 41 50 51 46 44 42 37 52 69 77 74 69 70 74 47 51 58 71
16 45 45 37 50 59 59 56 54 52 49 52 48 50 52 36 44 53 63 62 55 44 33 21 26 35 39 39 39 39 40 41 49 53 56 41 40 34 43 64 63 59 65 58 58 44 52 50 50
17 28 44 42 44 53 55 54 53 49 51 52 48 51 55 52 36 41 45 52 58 55 43 33 21 25 32 36 36 34 35 39 45 46 41 40 41 37 36 60 63 53 54 54 46 44 48 58 56
25 15 13 46 47 40 52 48 52 49 47 47 42 42 48 55 37 37 39 40 40 46 51 43 35 24 23 28 30 29 32 34 34 39 37 37 37 36 38 53 57 56 46 46 41 46 52 54 62
28 27 18 13 44 48 44 47 46 49 48 48 39 36 37 49 55 34 31 32 40 43 46 42 41 37 28 24 26 27 31 32 34 37 35 32 32 30 34 44 50 54 45 46 39 42 47 51 54
36 32 30 28 22 29 44 45 41 49 45 43 38 35 38 41 48 53 34 34 30 39 47 45 39 38 36 25 25 26 29 30 30 28 30 30 31 27 25 31 37 46 45 42 36 50 48 50 53
44 42 35 33 32 22 24 43 44 43 45 41 40 34 35 40 45 52 50 36 25 26 27 28 32 26 26 22 24 27 29 28 27 25 26 29 27 22 22 27 29 35 42 39 35 38 45 46 49
43 40 32 35 28 16 21 36 39 42 42 41 41 34 35 40 43 46 50 49 30 24 24 23 18 16 19 21 22 27 28 27 25 22 22 24 22 20 22 24 25 28 32 38 33 35 38 42 47
38 46 36 30 41 30 17 24 34 38 38 42 38 38 35 36 39 41 48 51 48 37 24 22 21 21 19 19 21 24 26 25 23 21 21 21 20 18 22 26 25 24 22 31 34 32 34 38 44
37 37 45 40 36 33 24 22 21 26 37 36 39 38 31 30 33 33 37 46 51 50 42 29 27 26 24 25 24 24 24 23 21 21 19 19 20 19 24 26 23 22 22 22 33 30 31 34 41
42 46 42 41 39 28 26 23 25 23 18 24 34 36 32 27 24 23 27 32 36 49 52 50 41 30 30 32 33 27 22 21 19 19 18 18 20 19 22 22 20 21 19 18 24 31 30 30 34
63 54 42 42 44 42 35 24 22 22 14 10 14 32 32 30 26 24 23 30 34 40 47 50 44 48 34 28 28 29 25 23 21 19 18 18 18 18 20 21 17 17 17 16 16 23 31 30 30

GFSSGP_700_rhum_048.txt.gz
RH
78 79 77 77 88 95 86 84 97 98 96 75 87 93 90 91 93 94 84 97 84 64 55 52 47 32 30 30 38 44 50 52 52 52 56 58 55 59 63 64 60 61 72 72 50 45 46 54 51
79 83 83 88 89 97 74 98 98 99 96 76 80 75 90 80 78 80 74 97 90 63 51 48 33 31 31 43 48 52 49 53 59 61 61 58 57 62 62 69 70 64 58 43 45 48 61 64 72
79 82 90 88 89 94 88 99 99 91 96 91 77 86 84 82 87 84 77 86 87 58 53 45 33 30 31 44 46 46 58 58 59 55 56 59 58 64 63 57 48 36 41 42 40 60 58 72 60
78 90 94 92 96 85 97 89 83 85 90 88 83 82 87 89 85 79 80 84 77 56 51 42 36 26 30 41 45 48 53 53 53 55 59 63 63 58 54 42 33 32 39 41 55 74 79 56 47
82 96 94 95 96 96 86 91 88 93 89 81 83 75 82 83 86 81 79 81 71 55 48 38 34 21 32 40 42 45 51 56 57 58 62 62 56 50 37 30 28 23 47 59 55 76 79 60 52
87 97 95 82 89 93 100 89 85 88 84 77 79 78 82 76 76 80 81 80 66 51 47 34 29 27 38 41 43 46 53 54 58 56 55 52 48 35 27 26 22 22 36 49 59 66 78 57 53
73 97 86 75 81 83 99 76 83 87 79 79 81 90 86 83 75 80 80 68 59 48 46 30 24 32 36 42 44 51 52 53 52 54 51 37 36 28 35 34 14 16 30 32 55 63 76 64 57
75 98 87 78 84 94 87 80 77 86 81 78 81 91 84 79 74 81 78 62 55 53 45 21 30 37 41 42 47 52 55 55 57 47 38 40 37 46 43 60 42 33 26 41 63 52 67 75 63
34 94 80 73 77 93 79 65 66 65 67 78 81 76 66 74 77 76 72 64 52 51 45 20 30 40 45 44 48 52 54 60 52 38 43 35 43 62 56 46 50 51 47 52 78 66 59 58 60
62 77 69 75 74 80 79 73 66 70 75 74 65 56 59 68 72 67 64 59 52 53 57 27 37 46 46 49 49 59 61 56 41 40 36 58 60 65 78 46 55 60 54 53 72 86 84 97 72
88 77 80 76 77 89 92 88 99 97 94 71 60 55 56 61 70 60 60 57 52 49 40 27 32 37 52 55 63 61 55 40 33 40 38 63 61 75 72 71 50 56 60 84 68 78 98 86 98
78 87 91 86 88 92 95 95 95 76 95 74 66 70 60 61 57 57 60 57 54 44 24 28 28 37 51 64 59 46 36 39 41 40 40 67 64 70 64 67 53 61 72 71 67 70 56 60 78
70 85 93 76 88 85 77 93 74 80 74 71 71 70 72 66 59 58 61 58 54 41 22 25 29 48 61 60 46 40 49 48 42 39 51 68 79 69 65 50 48 62 76 70 78 78 54 49 39
45 65 80 70 85 86 85 82 78 83 67 71 74 72 74 68 61 54 60 60 48 32 21 25 41 56 61 48 40 45 66 52 50 59 64 63 77 78 80 70 57 64 72 70 62 64 69 85 56
49 59 64 75 74 78 76 68 72 73 65 68 75 75 74 73 67 53 56 60 45 25 20 31 49 58 57 42 44 54 64 60 58 59 54 56 70 72 80 87 60 57 80 72 54 57 63 98 95
32 32 41 51 65 68 69 56 75 58 59 62 70 67 66 72 70 62 56 61 48 27 20 34 49 56 49 44 51 58 67 60 52 66 56 58 64 64 65 72 60 62 72 70 87 99 98 91 97
21 20 28 39 58 62 64 50 80 56 56 59 65 56 57 67 72 69 57 58 45 27 20 33 47 51 47 46 49 59 66 61 59 64 65 52 59 62 63 60 68 70 71 68 95 92 95 95 98
16 20 22 29 50 61 58 52 73 53 59 52 57 62 48 59 66 72 62 59 44 30 20 34 46 49 47 47 46 48 54 57 61 69 62 57 46 54 71 78 75 66 72 78 69 56 60 98 100
24 22 22 32 42 59 56 51 58 52 58 52 51 53 41 48 61 70 67 53 41 34 18 32 41 48 47 44 42 43 45 48 52 54 50 48 43 41 56 72 75 64 59 63 54 46 43 71 64
22 31 33 30 40 52 52 49 48 63 53 50 54 56 55 43 50 63 67 55 42 31 21 23 37 44 44 44 42 42 43 44 48 50 46 40 41 38 43 68 69 58 64 58 62 42 44 56 47
25 20 22 32 42 44 51 48 47 53 69 69 51 54 59 48 41 46 62 59 48 37 28 17 28 36 41 41 42 40 41 41 42 47 51 40 39 34 36 62 64 62 59 51 44 43 52 72 58
20 19 20 23 34 35 42 37 44 46 65 68 52 48 44 57 52 41 44 54 54 47 36 27 17 28 35 38 38 38 36 37 40 48 48 38 36 31 33 64 64 60 60 52 47 48 50 54 61
24 21 19 20 20 32 39 42 37 41 47 67 71 45 40 43 50 47 34 35 51 54 47 39 27 18 25 31 34 36 34 33 40 42 35 34 32 30 33 59 59 58 54 45 50 49 47 52 60
33 29 25 23 17 14 27 36 35 36 41 45 61 60 39 37 38 50 52 40 41 50 54 48 40 27 20 21 26 29 30 30 36 33 30 32 30 28 27 37 41 51 51 44 51 50 50 52 55
36 31 25 23 18 13 15 24 34 33 36 45 47 58 40 37 37 42 49 48 37 39 40 42 38 34 25 20 21 24 26 29 32 33 31 30 28 26 21 26 31 35 44 42 43 56 54 50 53
37 30 26 28 16 12 12 14 20 32 37 38 49 48 63 62 37 40 44 45 43 31 30 34 34 33 29 24 20 22 25 28 30 30 28 25 25 26 18 20 25 26 32 40 37 43 50 48 49
35 33 28 25 21 16 11 12 12 20 30 37 41 48 52 63 35 36 43 44 47 28 17 21 22 34 30 21 20 21 24 27 28 28 26 23 22 22 14 17 20 20 23 32 36 33 38 43 45
40 30 31 29 31 29 19 17 12 16 29 32 33 39 48 61 35 39 43 43 47 46 27 18 19 19 20 19 18 19 22 26 27 28 26 22 21 18 12 16 18 16 15 20 32 33 32 38 44
31 37 38 30 28 25 25 18 17 15 18 29 32 33 38 54 34 32 36 38 38 47 50 35 19 19 20 16 16 18 20 22 26 28 24 21 20 17 11 16 18 15 16 17 22 32 30 31 38
32 47 34 32 31 30 26 21 18 21 21 20 27 32 34 43 43 30 27 27 31 37 44 52 43 25 18 19 18 16 18 21 24 26 25 22 19 17 11 17 18 15 16 15 16 23 31 29 29